Weather in Pogorelka

Russia / Yaroslavl Oblast     57°31′07″N   38°59′37″E
temp.,
°C
wind,
m/s
gust,
m/s
humid.,
%
clouds,
%
prec.,
mm/h
press.,
hPa
HPBL,
m
25 february, thu
thu2500:00−13s4994100 0.3 1024439
03:00−12s4995100 2.3 1021390
06:00−10ssw41194100 3.1 1014494
09:00−5ssw2896100 4.3 1011308
12:00+1wnw310100100 0.6 1010381
15:00+1nw310100100 1.2 1010437
18:00+1wnw41198100 0.1 1011461
21:00+1w3898100 0.1 1011358
26 february, fri
fri2600:000wsw2398100 0.0 1010101
03:00+1sw2499100 0.9 1009108
06:00+1sw2699100 1.3 1005179
09:00+2wsw41299100 4.6 1002376
12:00+2wsw514100100 2.9 999470
15:00+2w61598100 5.8 997880
18:00+1w61497100 0.4 9951021
21:00+1wnw71497100 1.5 9951022
27 february, sat
sat2700:000wnw71397100 1.8 995924
03:00−5nnw51294100 3.9 997579
06:00−10nnw51191100 0.3 999678
09:00−11n5991100 0.4 1002527
12:00−10n4889100 0.0 1005537
15:00−9nnw4890100 0.1 1008537
18:00−11nnw3994100 0.1 1010459
21:00−11n3995100 0.1 1013381
28 february, sun
sun2800:00−13nnw269681 0.0 1014181
03:00−13nnw279668 0.1 1016203
06:00−16nnw279657 0.0 1017217
09:00−13nnw369470 0.1 1018284
12:00−9nnw369198 0.1 1019439
15:00−7nnw379199 0.1 1019460
18:00−10nnw239695 0.0 102042
21:00−10nw239785 0.1 102274
1 march, mon
mon100:00−7nw1296100 0.1 102326
03:00−6w249799 0.1 1024123
06:00−8w239594 0.0 102451
09:00−6w389588 0.1 1024280
12:00−3w369595 0.1 1023297
15:000w599797 0.1 1022605
18:000w51291100 0.0 1020764
21:00+1w61292100 0.0 1018740